User: anonymous   Login
Location: Unspecified
(40.7945°N, 0.0000°E)
Time: 22:25:26
(UTC+00:00)
Language:

UKube-1 - Orbit

View from above orbital plane
View from above orbital plane
View from above satellite
View from above satellite

Ground track
Ground track

The orbit data is extracted from the following two-line orbital elements,

1 40074U 14037F   19196.39725115  .00000231  00000-0  34956-4 0  9996
2 40074  98.4396 359.8752 0005767 116.4219 243.7592 14.84064763271616
Epoch (UTC): 15 July 2019 09:32:02
Eccentricity: 0.0005767
inclination: 98.4396°
perigee height: 612 km
apogee height: 620 km
right ascension of ascending node: 359.8752°
argument of perigee: 116.4219°
revolutions per day: 14.84064763
mean anomaly at epoch: 243.7592°
orbit number at epoch: 27161

The dashed part of the orbit path shows where the satellite is in the earth's shadow,  

DLR